Howe Sound, British Columbia

12:32 PM PST on January 16, 2017 (GMT -0800)
Howe Sound

Weather History for CWAS - March, 2014

Change the Weather History Date:

Saturday, March 1, 2014

  Actual Average Record
Temperature  
Mean Temperature 40 °F -  
Max Temperature 44 °F - - ()
Min Temperature 35 °F - - ()
Degree Days  
Heating Degree Days 25    
Moisture  
Dew Point 29 °F    
Average Humidity 67    
Maximum Humidity 73    
Minimum Humidity 54    
Precipitation  
Precipitation 0.00 in - - ()
Sea Level Pressure  
Sea Level Pressure 29.65 in    
Wind  
Wind Speed 38 mph ()    
Max Wind Speed 50 mph    
Max Gust Speed 58 mph    
T = Trace of Precipitation, MM = Missing Value Source: Averaged Metar Reports

Daily Weather History Graph

Daily Weather History Graph

Search for Another Location

Airport or City:

Trip Planner

Search our weather history database for the weather conditions in past years. The results will help you decide how hot, cold, wet, or windy it might be!

Date:

Astronomy

Mar. 01, 2014 Rise Set
Actual Time 6:55 AM PST 5:56 PM PST
Civil Twilight 6:23 AM PST 6:28 PM PST
Nautical Twilight 5:46 AM PST 7:05 PM PST
Astronomical Twilight 5:09 AM PST 7:42 PM PST
Moon 6:47 AM PST (3/1) 6:58 PM PST (3/1)
Length of Visible Light 12h 04m
Length of Day
11h 00m
New Moon, 0% of the Moon is Illuminated
Mar 1
New Moon
Mar 8
First Quarter
Mar 16
Full
Mar 23
Last Quarter
Mar 30
New

Hourly Weather History & Observations

Time (PST) Temp. Windchill Dew Point Humidity Pressure Visibility Wind Dir Wind Speed Gust Speed Precip Events Conditions
12:00 AM 44.2 °F 32.2 °F 36.0 °F 73% 29.57 in - NE 46.0 mph 51.8 mph N/A   Unknown
1:00 AM 42.8 °F 29.9 °F 34.3 °F 72% 29.58 in - NE 48.3 mph 54.1 mph N/A   Unknown
2:00 AM 41.7 °F 28.6 °F 33.1 °F 71% 29.59 in - NE 46.0 mph 54.1 mph N/A   Unknown
3:00 AM 40.5 °F 26.7 °F 31.5 °F 70% 29.60 in - NE 47.2 mph 52.9 mph N/A   Unknown
4:00 AM 40 °F - 31 °F 59% 29.60 in - NE 44.9 mph - -  
4:00 AM 39.6 °F 25.6 °F 30.6 °F 70% 29.60 in - NE 46.0 mph - N/A   Unknown
5:00 AM 38.7 °F 24.2 °F 29.5 °F 70% 29.61 in - NE 47.2 mph - N/A   Unknown
6:00 AM 37.9 °F 22.9 °F 28.4 °F 69% 29.62 in - NE 49.5 mph 57.5 mph N/A   Unknown
7:00 AM 37.8 °F 23.3 °F 28.2 °F 68% 29.63 in - NE 43.7 mph 55.2 mph N/A   Unknown
8:00 AM 36.9 °F 22.2 °F 27.1 °F 68% 29.65 in - NE 42.6 mph 55.2 mph N/A   Unknown
9:00 AM 36.7 °F 22.3 °F 27.0 °F 68% 29.68 in - NE 40.3 mph 51.8 mph N/A   Unknown
10:00 AM 37 °F - 27 °F 57% 29.68 in - NE 41.4 mph - -  
10:00 AM 36.9 °F 22.4 °F 27.1 °F 68% 29.68 in - NE 41.4 mph 48.3 mph N/A   Unknown
11:00 AM 37.6 °F 23.2 °F 27.9 °F 68% 29.67 in - NE 42.6 mph - N/A   Unknown
12:00 PM 38.3 °F 25.1 °F 29.1 °F 70% 29.68 in - NE 36.8 mph - N/A   Unknown
1:00 PM 38.8 °F 26.0 °F 29.7 °F 70% 29.67 in - NE 35.7 mph 44.9 mph N/A   Unknown
2:00 PM 39.4 °F 26.7 °F 29.8 °F 69% 29.68 in - NE 35.7 mph - N/A   Unknown
3:00 PM 39.4 °F 26.5 °F 29.5 °F 68% 29.67 in - NE 36.8 mph 42.6 mph N/A   Unknown
4:00 PM 39 °F - 29 °F 57% 29.66 in - NE 35.7 mph - -  
4:00 PM 39.2 °F 26.6 °F 29.1 °F 67% 29.66 in - NE 34.5 mph 43.7 mph N/A   Unknown
5:00 PM 38.3 °F 24.9 °F 27.9 °F 66% 29.67 in - NE 38.0 mph - N/A   Unknown
6:00 PM 37.9 °F 24.7 °F 27.5 °F 66% 29.66 in - NE 35.7 mph 42.6 mph N/A   Unknown
7:00 PM 37.4 °F 24.0 °F 26.8 °F 66% 29.66 in - NE 35.7 mph 43.7 mph N/A   Unknown
8:00 PM 36.7 °F 22.5 °F 26.2 °F 66% 29.66 in - NE 39.1 mph 46.0 mph N/A   Unknown
9:00 PM 36.1 °F 22.1 °F 25.5 °F 65% 29.66 in - NE 36.8 mph - N/A   Unknown
10:00 PM 36 °F - 26 °F 54% 29.67 in - NE 36.8 mph - -  
10:00 PM 36.1 °F 22.3 °F 25.5 °F 65% 29.67 in - NE 35.7 mph 43.7 mph N/A   Unknown
11:00 PM 35.1 °F 20.4 °F 23.9 °F 64% 29.67 in - NE 38.0 mph - N/A   Unknown